{"data":{"norad_id":68855,"intl_designator":"2026-094S","name":"STARLINK-37467","alt_names":[],"object_type":"PAYLOAD","status":"ACTIVE","operator":null,"country":"US","launch_date":"2026-04-26","launch_site_code":"AFWTR","launch_vehicle":null,"mission":null,"orbit_class":"UNKNOWN","rcs_meters":null,"size_class":null,"mass_kg":null,"dimensions":null,"purposes":["comms"],"wikipedia_slug":null,"has_3d_model":false,"image_url":null,"decayed_at":null,"tle_current":{"epoch":"2026-05-25T04:00:03.998880Z","epoch_age_seconds":56678,"freshness":"FRESH","line1":"1 68855U 26094S   26145.16671295 -.00017224  00000+0 -31591-3 0  9997","line2":"2 68855  97.2846 159.9578 0001831  83.4260 215.8138 15.49169811  5671","mean_motion":15.49169811,"eccentricity":0.0001831,"inclination_deg":97.2846,"raan_deg":159.9578,"arg_perigee_deg":83.426,"mean_anomaly_deg":215.8138,"bstar":-0.00031591,"rev_number":567,"period_min":92.953011979395,"perigee_km":417.90881419614,"apogee_km":420.39798193991,"semimajor_km":6797.290398068,"source":"CELESTRAK","updated_at":"2026-05-25T13:38:22.049018Z"}}}